Weather History for Danville, VA

Change the Weather History Date:

Thursday, November 10, 2011

  Actual Average Record
Temperature  
Mean Temperature 46 °F 51 °F  
Max Temperature 59 °F 63 °F 81 °F (1986)
Min Temperature 32 °F 40 °F 22 °F (1967)
Degree Days  
Heating Degree Days 19 14  
Month to date heating degree days 174 123  
Since 1 July heating degree days 471 356  
Cooling Degree Days 0 0  
Month to date cooling degree days 0 0  
Year to date cooling degree days 1563 1436  
Moisture  
Dew Point 40 °F    
Average Humidity 75    
Maximum Humidity 100    
Minimum Humidity 49    
Precipitation  
Precipitation T in 0.12 in 2.67 in (1962)
Month to date precipitation 1.34 1.23  
Year to date precipitation 33.18 39.01  
Snow  
Snow 0.00 in - - ()
Month to date snowfall 0.0  
Since 1 July snowfall 0.0  
Since 1 September snowfall 0.0  
Snow Depth 0.00 in    
Sea Level Pressure  
Sea Level Pressure 29.89 in    
Wind  
Wind Speed 4 mph (NW)    
Max Wind Speed 17 mph    
Max Gust Speed 23 mph    
Visibility 9 miles    
Events Rain    
T = Trace of Precipitation, MM = Missing Value Source: NWS Daily Summary

Daily Weather History Graph

Daily Weather History Graph

Search for Another Location

Airport:

Trip Planner

Search our weather history database for the weather conditions in past years. The results will help you decide how hot, cold, wet, or windy it might be!

Date:

Astronomy

Nov. 10, 2011 Rise Set
Actual Time 6:49 AM EST 5:12 PM EST
Civil Twilight 6:22 AM EST 5:39 PM EST
Nautical Twilight 5:51 AM EST 6:10 PM EST
Astronomical Twilight 5:21 AM EST 6:40 PM EST
Moon 5:00 PM EST (11/10) 6:39 AM EST (11/10)
Length of Visible Light 11h 17m
Length of Day
10h 22m
Full, 100% of the Moon is Illuminated
Nov 10
Full
Nov 10
Full
Nov 18
Last Quarter
Nov 25
New
Dec 2
First Quarter

Hourly Weather History & Observations

Time (EST) Temp. Windchill Dew Point Humidity Pressure Visibility Wind Dir Wind Speed Gust Speed Precip Events Conditions
12:53 AM 43.0 °F - 43.0 °F 100% 29.96 in 8.0 mi Calm Calm - N/A   Clear
1:53 AM 42.1 °F - 41.0 °F 96% 29.94 in 7.0 mi Calm Calm - N/A   Mostly Cloudy
2:53 AM 42.1 °F - 41.0 °F 96% 29.93 in 7.0 mi Calm Calm - N/A   Mostly Cloudy
3:53 AM 39.2 °F - 39.2 °F 100% 29.92 in 7.0 mi Calm Calm - N/A   Clear
4:53 AM 41.0 °F - 39.9 °F 96% 29.88 in 6.0 mi Calm Calm - N/A   Clear
5:53 AM 42.1 °F - 41.0 °F 96% 29.90 in 7.0 mi Calm Calm - N/A   Mostly Cloudy
6:53 AM 43.0 °F - 42.1 °F 97% 29.89 in 7.0 mi Calm Calm - N/A   Mostly Cloudy
7:53 AM 46.9 °F - 45.0 °F 93% 29.90 in 8.0 mi Calm Calm - N/A   Mostly Cloudy
8:53 AM 54.0 °F - 48.0 °F 80% 29.90 in 10.0 mi NW 4.6 mph - N/A   Overcast
9:53 AM 59.0 °F - 48.0 °F 67% 29.90 in 10.0 mi NNW 10.4 mph - N/A   Overcast
10:53 AM 57.9 °F - 46.9 °F 67% 29.89 in 10.0 mi North 5.8 mph - N/A   Overcast
11:53 AM 55.0 °F - 48.9 °F 80% 29.87 in 10.0 mi North 9.2 mph - 0.00 in Rain Light Rain
12:53 PM 53.1 °F - 44.1 °F 71% 29.86 in 10.0 mi NNW 10.4 mph - 0.00 in   Overcast
1:53 PM 52.0 °F - 43.0 °F 71% 29.85 in 10.0 mi North 5.8 mph - 0.00 in   Overcast
2:53 PM 51.1 °F - 44.1 °F 77% 29.84 in 10.0 mi Calm Calm - 0.00 in   Overcast
3:53 PM 51.8 °F - 44.6 °F 76% 29.85 in 10.0 mi Calm Calm - N/A   Overcast
4:53 PM 50.0 °F - 46.0 °F 86% 29.84 in 10.0 mi Calm Calm - N/A   Overcast
5:53 PM 50.0 °F - 33.1 °F 52% 29.86 in 10.0 mi NNW 12.7 mph 23.0 mph N/A   Mostly Cloudy
6:53 PM 48.0 °F - 30.9 °F 52% 29.88 in 10.0 mi NW 6.9 mph - N/A   Clear
7:53 PM 46.9 °F - 28.9 °F 50% 29.89 in 10.0 mi WNW 5.8 mph - N/A   Clear
8:53 PM 43.0 °F 40.3 °F 28.0 °F 56% 29.90 in 10.0 mi WNW 4.6 mph - N/A   Clear
9:53 PM 35.1 °F 32.2 °F 28.9 °F 78% 29.91 in 10.0 mi West 3.5 mph - N/A   Clear
10:53 PM 33.1 °F 28.7 °F 28.9 °F 85% 29.91 in - WSW 4.6 mph - N/A   Clear
11:53 PM 39.0 °F 33.4 °F 28.9 °F 67% 29.93 in 10.0 mi WNW 8.1 mph - N/A   Scattered Clouds